This is the latest recevied weather packets stored in our database for station/object CT2IRJ-11. If no packets are shown the sender has not sent any weather packets the latest 10 day(s).
| Time | Temp. | Humidity | Pressure | Rain* | Wind** | Luminosity | Snow |
|---|---|---|---|---|---|---|---|
| 1788620105 | 38.89° C | 33% | 1016.6 hPa | 0 mm | - | 485 W/m² | - |
| 1788619806 | 40° C | 34% | 1016.6 hPa | 0 mm | - | 433 W/m² | - |
| 1788619505 | 39.44° C | 33% | 1016.9 hPa | 0 mm | - | 467 W/m² | - |
| 1788619207 | 39.44° C | 34% | 1016.6 hPa | 0 mm | - | 518 W/m² | - |
| 1788618905 | 38.89° C | 33% | 1016.6 hPa | 0 mm | - | 553 W/m² | - |
| 1788618605 | 40° C | 31% | 1016.6 hPa | 0 mm | - | 552 W/m² | - |
| 1788618305 | 38.89° C | 31% | 1016.9 hPa | 0 mm | - | 558 W/m² | - |
| 1788618005 | 38.89° C | 31% | 1016.9 hPa | 0 mm | - | 569 W/m² | - |
| 1788617706 | 40.56° C | 30% | 1016.9 hPa | 0 mm | - | 578 W/m² | - |
| 1788617406 | 38.89° C | 31% | 1016.6 hPa | 0 mm | - | 568 W/m² | - |
| 1788617105 | 38.89° C | 31% | 1016.9 hPa | 0 mm | - | 583 W/m² | - |
| 1788616805 | 38.89° C | 31% | 1017.3 hPa | 0 mm | - | 588 W/m² | - |
| 1788616505 | 38.33° C | 32% | 1017.3 hPa | 0 mm | - | 588 W/m² | - |
| 1788616207 | 38.89° C | 31% | 1017.6 hPa | 0 mm | - | 589 W/m² | - |
| 1788615907 | 38.89° C | 31% | 1017.3 hPa | 0 mm | - | 578 W/m² | - |
| 1788615605 | 38.33° C | 32% | 1017.3 hPa | 0 mm | - | 577 W/m² | - |
| 1788615305 | 37.78° C | 32% | 1017.6 hPa | 0 mm | - | 597 W/m² | - |
| 1788615005 | 37.22° C | 33% | 1017.3 hPa | 0 mm | - | 363 W/m² | - |
| 1788614706 | 37.78° C | 34% | 1017.6 hPa | 0 mm | - | 570 W/m² | - |
| 1788614406 | 38.33° C | 34% | 1017.3 hPa | 0 mm | - | 234 W/m² | - |
| 1788614105 | 38.33° C | 34% | 1017.6 hPa | 0 mm | - | 383 W/m² | - |
| 1788613805 | 37.78° C | 34% | 1017.6 hPa | 0 mm | - | 618 W/m² | - |
| 1788613506 | 37.22° C | 34% | 1017.6 hPa | 0 mm | - | 667 W/m² | - |
| 1788613206 | 36.67° C | 35% | 1017.6 hPa | 0 mm | - | 704 W/m² | - |
| 1788612906 | 36.11° C | 36% | 1017.6 hPa | 0 mm | - | 689 W/m² | - |
* Rain latest hour (hover to see other rain measurements)
** Current wind speed in m/s (hover to see current wind gust speed)